Kodiak, AK

8:23 PM AKDT on September 19, 2017 (GMT -0800)
Kodiak

Weather History for PADQ - January, 2013

Change the Weather History Date:

Wednesday, January 16, 2013

  Actual Average Record
Temperature  
Mean Temperature 32 °F 30 °F  
Max Temperature 37 °F 35 °F 47 °F (1929)
Min Temperature 27 °F 26 °F 5 °F (1972)
Degree Days  
Heating Degree Days 33 35  
Month to date heating degree days 484 548  
Since 1 July heating degree days 4523 4391  
Cooling Degree Days 0 0  
Month to date cooling degree days 0 0  
Year to date cooling degree days 0 0  
Moisture  
Dew Point 27 °F    
Average Humidity 0    
Maximum Humidity 0    
Minimum Humidity 0    
Precipitation  
Precipitation 0.01 in 0.28 in 2.03 in (1994)
Month to date precipitation 2.75 4.43  
Year to date precipitation 2.75 4.43  
Snow  
Snow 0.10 in 0.40 in 8.00 in (1918)
Month to date snowfall 3.6 6.1  
Since 1 July snowfall 20.0 27.4  
Snow Depth T in    
Sea Level Pressure  
Sea Level Pressure 29.86 in    
Wind  
Wind Speed 7 mph (NW)    
Max Wind Speed 16 mph    
Max Gust Speed 22 mph    
Visibility 9 miles    
Events Snow    
T = Trace of Precipitation, MM = Missing Value Source: NWS Daily Summary

Daily Weather History Graph

Daily Weather History Graph

Search for Another Location

Airport or City:

Trip Planner

Search our weather history database for the weather conditions in past years. The results will help you decide how hot, cold, wet, or windy it might be!

Date:

Astronomy

Jan. 16, 2013 Rise Set
Actual Time 9:39 AM AKST 5:00 PM AKST
Civil Twilight 8:52 AM AKST 5:48 PM AKST
Nautical Twilight 8:02 AM AKST 6:37 PM AKST
Astronomical Twilight 7:15 AM AKST 7:24 PM AKST
Moon 10:57 AM AKST (1/16) No Moon Set
Length of Visible Light 8h 55m
Length of Day
7h 21m
Waxing Crescent, 29% of the Moon is Illuminated
Jan 16
Waxing Crescent
Jan 18
First Quarter
Jan 26
Full
Feb 3
Last Quarter
Feb 9
New

Hourly Weather History & Observations

Time (AKST) Temp. Windchill Dew Point Humidity Pressure Visibility Wind Dir Wind Speed Gust Speed Precip Events Conditions
12:53 AM 30.0 °F 23.2 °F 28.0 °F 92% 30.14 in 10.0 mi West 6.9 mph - N/A   Overcast
1:53 AM 30.9 °F 24.3 °F 28.0 °F 89% 30.13 in 10.0 mi West 6.9 mph - N/A   Overcast
3:53 AM 30.9 °F 27.5 °F 28.9 °F 92% 30.08 in 10.0 mi West 3.5 mph - N/A   Overcast
4:53 AM 30.9 °F 26.2 °F 28.9 °F 92% 30.05 in 10.0 mi WNW 4.6 mph - N/A   Overcast
5:53 AM 30.9 °F - 28.9 °F 92% 30.02 in 10.0 mi Calm Calm - N/A   Overcast
6:53 AM 30.0 °F 26.5 °F 28.0 °F 92% 30.00 in 10.0 mi WNW 3.5 mph - N/A   Mostly Cloudy
7:53 AM 28.9 °F 22.8 °F 28.0 °F 96% 29.98 in 10.0 mi West 5.8 mph - N/A   Mostly Cloudy
8:53 AM 30.0 °F 26.5 °F 28.0 °F 92% 29.96 in 10.0 mi Variable 3.5 mph - N/A   Mostly Cloudy
9:53 AM 36.0 °F 29.0 °F 30.0 °F 79% 29.94 in 10.0 mi WNW 9.2 mph - N/A   Mostly Cloudy
10:53 AM 35.6 °F 29.2 °F 28.4 °F 75% 29.92 in 10.0 mi NW 8.1 mph - N/A   Mostly Cloudy
11:53 AM 36.0 °F 29.0 °F 27.0 °F 70% 29.89 in 10.0 mi NW 9.2 mph - N/A   Mostly Cloudy
12:53 PM 37.0 °F 29.3 °F 27.0 °F 67% 29.87 in 10.0 mi WNW 11.5 mph - N/A   Mostly Cloudy
1:53 PM 36.0 °F 28.0 °F 27.0 °F 70% 29.84 in 10.0 mi WNW 11.5 mph - N/A   Mostly Cloudy
2:53 PM 35.1 °F 26.4 °F 27.0 °F 72% 29.81 in 10.0 mi NW 12.7 mph - N/A   Mostly Cloudy
3:53 PM 34.0 °F 26.0 °F 27.0 °F 75% 29.79 in 10.0 mi NW 10.4 mph - N/A   Mostly Cloudy
4:53 PM 33.1 °F 26.9 °F 26.1 °F 75% 29.78 in 10.0 mi NNW 6.9 mph - N/A   Overcast
5:09 PM 33.8 °F 27.0 °F 28.4 °F 81% 29.77 in 2.0 mi North 8.1 mph - 0.00 in Snow Light Snow
5:29 PM 32.0 °F 27.5 °F 28.4 °F 87% 29.77 in 6.0 mi North 4.6 mph - 0.00 in Snow Light Snow
5:53 PM 30.9 °F 27.5 °F 28.9 °F 92% 29.77 in 6.0 mi NNW 3.5 mph - 0.00 in Snow Light Snow
6:53 PM 30.0 °F 26.5 °F 27.0 °F 88% 29.76 in 10.0 mi North 3.5 mph - 0.00 in   Overcast
7:53 PM 28.9 °F 21.9 °F 24.1 °F 82% 29.74 in 10.0 mi NW 6.9 mph - N/A   Mostly Cloudy
8:53 PM 28.9 °F 25.2 °F 24.1 °F 82% 29.74 in 10.0 mi NNW 3.5 mph - N/A   Overcast
9:19 PM 28.4 °F 21.2 °F 26.6 °F 93% 29.73 in 2.0 mi NW 6.9 mph - 0.00 in Snow Light Snow
9:26 PM 28.4 °F 21.2 °F 26.6 °F 93% 29.73 in 1.2 mi NW 6.9 mph - 0.00 in Snow Light Snow
9:35 PM 28.4 °F 20.4 °F 26.6 °F 93% 29.73 in 3.0 mi NW 8.1 mph - 0.01 in Snow Light Snow
9:53 PM 28.0 °F 21.7 °F 25.0 °F 88% 29.73 in 10.0 mi NW 5.8 mph - 0.01 in   Overcast
10:00 PM 28.4 °F 20.4 °F 24.8 °F 86% 29.72 in 10.0 mi WNW 8.1 mph - N/A   Mostly Cloudy
10:21 PM 28.4 °F 21.2 °F 23.0 °F 80% 29.72 in 10.0 mi WNW 6.9 mph - N/A   Scattered Clouds
10:53 PM 28.0 °F 18.1 °F 21.9 °F 78% 29.72 in 10.0 mi WNW 11.5 mph - N/A   Scattered Clouds
11:53 PM 27.0 °F 15.2 °F 19.9 °F 75% 29.71 in 10.0 mi WNW 15.0 mph - N/A   Partly Cloudy